Maple Lake, MN

10:21 AM CDT on October 17, 2017 (GMT -0500)
Maple Lake Municipal

Weather History for KMGG - January, 2014

Change the Weather History Date:

Saturday, January 18, 2014

  Actual Average (KSTC) Record (KSTC)
Temperature  
Mean Temperature 16 °F -  
Max Temperature 20 °F 20 °F 48 °F (1981)
Min Temperature 11 °F -2 °F -34 °F (1994)
Degree Days  
Heating Degree Days 50    
Moisture  
Dew Point 12 °F    
Average Humidity 84    
Maximum Humidity 93    
Minimum Humidity 72    
Precipitation  
Precipitation 0.01 in - - ()
Sea Level Pressure  
Sea Level Pressure 29.75 in    
Wind  
Wind Speed 8 mph (ENE)    
Max Wind Speed 14 mph    
Max Gust Speed 18 mph    
Visibility 7 miles    
Events Snow    
Averages and records for this station are not official NWS values.
T = Trace of Precipitation, MM = Missing Value Source: NWS Daily Summary

Daily Weather History Graph

Daily Weather History Graph

Search for Another Location

Airport or City:

Trip Planner

Search our weather history database for the weather conditions in past years. The results will help you decide how hot, cold, wet, or windy it might be!

Date:

Astronomy

Jan. 18, 2014 Rise Set
Actual Time 7:49 AM CST 5:03 PM CST
Civil Twilight 7:16 AM CST 5:36 PM CST
Nautical Twilight 6:40 AM CST 6:12 PM CST
Astronomical Twilight 6:05 AM CST 6:47 PM CST
Moon 7:56 PM CST (1/18) 8:41 AM CST (1/18)
Length of Visible Light 10h 19m
Length of Day
9h 14m
Waning Gibbous, 94% of the Moon is Illuminated
Jan 18
Waning Gibbous
Jan 23
Last Quarter
Jan 30
New
Feb 6
First Quarter
Feb 14
Full

Hourly Weather History & Observations

Time (CST) Temp. Windchill Dew Point Humidity Pressure Visibility Wind Dir Wind Speed Gust Speed Precip Events Conditions
12:17 AM 11.3 °F 1.9 °F 6.4 °F 81% 29.71 in 3.0 mi SSE 5.8 mph - N/A Snow Light Snow
12:37 AM 11.3 °F -0.4 °F 7.5 °F 85% 29.68 in 1.2 mi SE 8.1 mph - N/A Snow Light Snow
12:57 AM 11.3 °F 1.9 °F 8.2 °F 87% 29.66 in 1.2 mi SE 5.8 mph - N/A Snow Light Snow
1:17 AM 11.8 °F 1.3 °F 9.1 °F 89% 29.65 in 0.8 mi ESE 6.9 mph - N/A Snow Snow
1:37 AM 12.0 °F 0.5 °F 9.9 °F 91% 29.64 in 0.8 mi SE 8.1 mph - N/A Snow Snow
1:57 AM 12.7 °F 0.4 °F 10.8 °F 92% 29.62 in 0.5 mi SE 9.2 mph - N/A Snow Heavy Snow
2:16 AM 12.7 °F 0.4 °F 10.9 °F 92% 29.60 in 0.5 mi SE 9.2 mph - N/A Snow Heavy Snow
2:37 AM 13.1 °F 0.9 °F 11.3 °F 93% 29.58 in 0.5 mi ESE 9.2 mph - N/A Snow Heavy Snow
2:56 AM 13.6 °F 0.7 °F 12.0 °F 93% 29.55 in 0.5 mi ESE 10.4 mph 16.1 mph N/A Snow Heavy Snow
3:17 AM 14.4 °F 2.4 °F 12.7 °F 93% 29.53 in 0.5 mi SE 9.2 mph 17.3 mph N/A Snow Heavy Snow
3:37 AM 14.7 °F 2.9 °F 13.1 °F 93% 29.53 in 0.5 mi SE 9.2 mph 16.1 mph N/A Snow Snow
3:57 AM 14.9 °F 5.0 °F 13.3 °F 93% 29.52 in 1.2 mi SE 6.9 mph - 0.01 in Snow Light Snow
4:16 AM 15.4 °F 5.6 °F 13.6 °F 93% 29.52 in 1.0 mi SE 6.9 mph - N/A Snow Snow
4:37 AM 15.4 °F 5.6 °F 13.6 °F 93% 29.51 in 1.5 mi ESE 6.9 mph - N/A Snow Light Snow
4:57 AM 15.8 °F 5.1 °F 14.0 °F 93% 29.51 in 2.0 mi ESE 8.1 mph - N/A Snow Light Snow
5:17 AM 15.4 °F 3.8 °F 13.5 °F 92% 29.51 in 2.5 mi East 9.2 mph - N/A Snow Light Snow
5:36 AM 14.5 °F 1.9 °F 12.6 °F 92% 29.51 in 3.0 mi East 10.4 mph - N/A Snow Light Snow
5:57 AM 14.5 °F 1.1 °F 12.6 °F 92% 29.52 in 2.5 mi East 11.5 mph - N/A Snow Light Snow
6:17 AM 14.0 °F -0.2 °F 12.0 °F 92% 29.53 in 4.0 mi East 12.7 mph - N/A Snow Light Snow
6:36 AM 13.8 °F -1.1 °F 11.7 °F 91% 29.53 in 4.0 mi East 13.8 mph 18.4 mph N/A Snow Light Snow
6:57 AM 14.0 °F -0.2 °F 11.7 °F 90% 29.55 in 3.0 mi East 12.7 mph 18.4 mph N/A Snow Light Snow
7:17 AM 13.8 °F -0.5 °F 11.7 °F 91% 29.57 in 7.0 mi ENE 12.7 mph 18.4 mph N/A   Overcast
7:37 AM 13.8 °F -1.1 °F 11.3 °F 90% 29.58 in 5.0 mi ENE 13.8 mph 17.3 mph N/A Snow Light Snow
7:56 AM 13.5 °F -0.9 °F 10.9 °F 90% 29.60 in 3.0 mi ENE 12.7 mph - N/A Snow Light Snow
8:17 AM 12.6 °F -2.0 °F 10.0 °F 90% 29.62 in 4.0 mi ENE 12.7 mph - N/A   Mostly Cloudy
8:37 AM 12.6 °F -2.0 °F 9.9 °F 89% 29.65 in 10.0 mi NE 12.7 mph - N/A   Clear
8:57 AM 12.2 °F -1.8 °F 9.1 °F 88% 29.68 in 10.0 mi NE 11.5 mph - N/A   Clear
9:16 AM 12.6 °F -0.6 °F 9.1 °F 86% 29.70 in 10.0 mi NE 10.4 mph 18.4 mph N/A   Clear
9:37 AM 13.3 °F -0.5 °F 9.3 °F 84% 29.70 in 5.0 mi ENE 11.5 mph - N/A   Clear
9:57 AM 14.5 °F 1.1 °F 10.2 °F 83% 29.75 in 10.0 mi NE 11.5 mph - N/A   Clear
10:17 AM 15.3 °F 3.5 °F 10.4 °F 81% 29.77 in 7.0 mi NE 9.2 mph - N/A   Clear
10:37 AM 16.2 °F 3.9 °F 10.9 °F 80% 29.78 in 7.0 mi NE 10.4 mph - N/A   Clear
10:57 AM 17.1 °F 5.0 °F 11.3 °F 78% 29.81 in 10.0 mi NNE 10.4 mph - N/A   Clear
11:16 AM 17.6 °F 7.3 °F 11.8 °F 78% 29.82 in 10.0 mi NNE 8.1 mph - N/A   Clear
11:37 AM 17.6 °F 6.4 °F 11.3 °F 76% 29.84 in 10.0 mi NNE 9.2 mph - N/A   Clear
11:57 AM 18.0 °F 8.7 °F 11.7 °F 76% 29.85 in 10.0 mi North 6.9 mph - N/A   Clear
12:16 PM 18.5 °F 6.8 °F 12.2 °F 76% 29.86 in 10.0 mi North 10.4 mph - N/A   Clear
12:37 PM 18.3 °F 8.2 °F 12.0 °F 76% 29.87 in 10.0 mi North 8.1 mph - N/A   Clear
12:57 PM 19.0 °F 6.8 °F 12.4 °F 75% 29.88 in 10.0 mi North 11.5 mph - N/A   Clear
1:17 PM 19.9 °F 7.9 °F 12.9 °F 74% 29.89 in 10.0 mi NNW 11.5 mph - N/A   Clear
1:37 PM 20.1 °F 9.5 °F 13.1 °F 74% 29.89 in 10.0 mi North 9.2 mph - N/A   Clear
1:57 PM 20.3 °F 12.5 °F 13.1 °F 74% 29.88 in 10.0 mi North 5.8 mph - N/A   Clear
2:16 PM 20.5 °F 14.0 °F 13.5 °F 74% 29.88 in 10.0 mi North 4.6 mph - N/A   Clear
2:37 PM 20.7 °F - 13.1 °F 73% 29.87 in 10.0 mi Calm Calm - N/A   Clear
2:57 PM 20.8 °F 14.4 °F 13.1 °F 72% 29.88 in 10.0 mi West 4.6 mph - N/A   Clear
3:16 PM 20.7 °F 11.9 °F 12.9 °F 72% 29.91 in 7.0 mi WNW 6.9 mph - N/A   Clear
3:37 PM 19.8 °F 14.7 °F 12.7 °F 74% 29.91 in 10.0 mi NW 3.5 mph - N/A   Clear
3:57 PM 20.3 °F 12.5 °F 12.7 °F 73% 29.91 in 10.0 mi West 5.8 mph - N/A   Clear
4:16 PM 19.9 °F 10.1 °F 12.7 °F 74% 29.93 in 10.0 mi West 8.1 mph - N/A   Clear
4:37 PM 19.6 °F 10.6 °F 12.7 °F 75% 29.94 in 10.0 mi West 6.9 mph - N/A   Clear
4:57 PM 18.5 °F 8.4 °F 12.0 °F 76% 29.95 in 10.0 mi West 8.1 mph - N/A   Clear
5:17 PM 17.6 °F 8.2 °F 11.3 °F 76% 29.94 in 10.0 mi West 6.9 mph - N/A   Clear
5:37 PM 16.9 °F 9.8 °F 11.3 °F 79% 29.93 in 10.0 mi West 4.6 mph - N/A   Clear
5:56 PM 16.2 °F 9.0 °F 11.1 °F 81% 29.93 in 10.0 mi West 4.6 mph - N/A   Clear
6:17 PM 15.6 °F 8.3 °F 10.9 °F 82% 29.92 in 10.0 mi West 4.6 mph - N/A   Clear
6:37 PM 15.3 °F 6.6 °F 10.9 °F 83% 29.91 in 10.0 mi WSW 5.8 mph - N/A   Clear
6:57 PM 15.8 °F 7.2 °F 11.3 °F 82% 29.91 in 10.0 mi WSW 5.8 mph - N/A   Scattered Clouds
7:16 PM 15.8 °F 7.2 °F 11.3 °F 82% 29.90 in 10.0 mi WSW 5.8 mph - N/A   Mostly Cloudy
7:37 PM 16.3 °F 5.7 °F 11.8 °F 82% 29.89 in 10.0 mi WSW 8.1 mph - N/A   Mostly Cloudy
7:57 PM 16.0 °F 4.4 °F 12.0 °F 84% 29.87 in 10.0 mi WSW 9.2 mph - N/A   Mostly Cloudy
8:16 PM 15.8 °F 4.2 °F 11.8 °F 84% 29.87 in 10.0 mi WSW 9.2 mph - N/A   Mostly Cloudy
8:37 PM 15.3 °F 3.5 °F 11.3 °F 84% 29.86 in 10.0 mi West 9.2 mph - N/A   Scattered Clouds
8:57 PM 15.4 °F 4.6 °F 11.8 °F 86% 29.83 in 10.0 mi WSW 8.1 mph - N/A   Scattered Clouds
9:17 PM 15.6 °F 5.9 °F 12.6 °F 88% 29.82 in 10.0 mi WSW 6.9 mph - N/A   Scattered Clouds
9:36 PM 15.8 °F 4.2 °F 13.1 °F 89% 29.80 in 10.0 mi WSW 9.2 mph - N/A   Scattered Clouds
9:57 PM 16.5 °F 6.0 °F 14.0 °F 90% 29.76 in 10.0 mi SW 8.1 mph - N/A   Scattered Clouds
10:16 PM 17.1 °F 5.0 °F 14.4 °F 89% 29.77 in 10.0 mi SW 10.4 mph - N/A   Scattered Clouds
10:37 PM 17.6 °F 6.4 °F 14.9 °F 89% 29.75 in 10.0 mi SW 9.2 mph - N/A   Mostly Cloudy
10:57 PM 17.6 °F 6.4 °F 14.9 °F 89% 29.74 in 10.0 mi SW 9.2 mph 16.1 mph N/A   Mostly Cloudy
11:17 PM 17.6 °F 7.3 °F 14.9 °F 89% 29.73 in 10.0 mi SSW 8.1 mph - N/A   Scattered Clouds
11:37 PM 18.0 °F 6.9 °F 15.4 °F 90% 29.72 in 10.0 mi SW 9.2 mph - N/A   Mostly Cloudy
11:56 PM 18.3 °F 7.3 °F 15.8 °F 90% 29.69 in 10.0 mi SW 9.2 mph - N/A   Scattered Clouds